Regional Weather Roundup
Issued by NWS

Home | Current Version | Previous Version | Text Only | Print | Product List | Glossary On
Versions: 1 2 3 4 5 6 7 8 9 10 11 12 13 14 15 16 17 18 19 20 21 22 23 24 25 26 27 28 29 30 31 32 33 34 35 36 37 38 39 40 41 42 43 44 45 46 47 48 49 50
000
ASUS44 KLIX 220906
RWRLA
LOUISIANA WEATHER ROUNDUP
NATIONAL WEATHER SERVICE NEW ORLEANS LA
400 AM CDT SUN APR 22 2018

NOTE: "FAIR" INDICATES FEW OR NO CLOUDS BELOW 12,000 FEET WITH NO
      SIGNIFICANT WEATHER AND/OR OBSTRUCTIONS TO VISIBILITY.
      SKY/WX - SKY CONDITION AND SIGNIFICANT WEATHER.
      TMP - AIR TEMPERATURE.    DP   - DEWPOINT TEMPERATURE.
      RH  - RELATIVE HUMIDITY.  PRES - PRESSURE.
      HX  - HEAT INDEX.         WCI  - WIND CHILL INDEX.

*  THESE STATIONS ARE NOT NWS OR FAA STATIONS AND ARE NOT UNDER
   NWS QUALITY CONTROL.

LAZ040-048-061>063-065-066-069-221000-
SOUTHEAST LOUISIANA

CITY           SKY/WX    TMP DP  RH WIND       PRES   REMARKS
N.O. INTL ARPT CLOUDY    70  67  90 SE14      29.94F
N.O. LAKEFRONT MOCLDY    70  68  93 SE15      29.95F FOG
N.O. DOWNTOWN* PTSUNNY   70  67  90 VRB5      29.96F
RESERVE*       FAIR      71  66  85 S9        29.95R
SLIDELL        CLOUDY    69  66  90 SE13      29.95F
BATON ROUGE    RAIN      69  66  90 SE6       29.94F FOG
BOOTHVILLE     FAIR      68  67  96 SE3       30.00R FOG
BELLE CHASSE   FAIR      69  69 100 SE9       29.95F
BOGALUSA*      CLOUDY    68  64  86 S8        29.97S
GALLIANO*      FAIR      70  66  86 SE6       29.96F
NEW ROADS*     RAIN      67  65  94 CALM      29.94F
GONZALES*      LGT RAIN  69  67  93 SE6G17    29.91F
HAMMOND*       CLOUDY    68  64  88 S10G18    29.95R
HOUMA*         FAIR      71  68  91 SE13G20   29.93F
PORT FOURCHON* MOSUNNY   72  70  94 SE10      29.97F

$$

LAZ041-044-053-054-221000-
SOUTHWEST LOUISIANA

CITY           SKY/WX    TMP DP  RH WIND       PRES   REMARKS
LAKE CHARLES   RAIN      69  69 100 S12G29    29.88S
LAFAYETTE      LGT RAIN  69  69 100 VRB6      29.92F FOG
PATTERSON      CLOUDY    70  69  97 SW7       29.96R THUNDER FOG
SALT POINT       N/A    N/A N/A N/A VRB6      29.92S
NEW IBERIA     RAIN      69  67  93 SE15      29.92F
CHENAULT AIRPK HVY RAIN  68  68  98 S12G23    29.90S

$$

LAZ027-028-221000-
CENTRAL LOUISIANA

CITY           SKY/WX    TMP DP  RH WIND       PRES   REMARKS
FORT POLK      RAIN      63  61  94 E8        29.92F FOG
ALEXANDRIA INT LGT RAIN  64  63  96 SE9       29.92F
ALEXANDRIA     RAIN      63  63 100 W3        29.96F FOG

$$

LAZ001-002-221000-
NORTHWEST LOUISIANA

CITY           SKY/WX    TMP DP  RH WIND       PRES   REMARKS
SHREVEPORT     CLOUDY    62  62 100 CALM      29.92S
BARKSDALE AFB  CLOUDY    60  60 100 E5        29.91F
DTN SHREVEPORT CLOUDY    62  61  96 SE5       29.92F

$$

LAZ014-016-221000-
NORTHEAST LOUISIANA

CITY           SKY/WX    TMP DP  RH WIND       PRES   REMARKS
MONROE         LGT RAIN  63  62  97 N6        29.96R
TALLULAH       HVY RAIN  63  63 100 SE7       29.98F FOG

$$




USA.gov is the U.S. government's official web portal to all federal, state and local government web resources and services.